Home   Weather   Chongqing   Past weeks

Flag for China Past Weather in Chongqing, Chongqing Municipality, China — Yesterday and Last 2 Weeks

Now
73 °F

Passing clouds.


Feels Like: 77 °F
Forecast: 66 / 84 °F
Wind: 3 mph from Northeast

Location: Chongqing Airport

Current Time: Apr 30, 2017 at 9:31:09 pm

Latest Report: Apr 30, 2017 at 8:00 pm


Visibility: N/A

Pressure: 29.80 "Hg

Humidity: 53%

Dew Point: 55 °F

Location of ChongqingLocation

Past Weather in Chongqing — Graph

°F

Chongqing Temperature Yesterday

Maximum temperature yesterday: 81 °F (at 4:00 pm)
Minimum temperature yesterday: 61 °F (at 2:00 am)
Average temperature yesterday: 70 °F

High & Low Weather Summary for the Past Weeks

 TemperatureHumidityPressure
High88 °F (Apr 19, 3:00 pm)94% (Apr 16, 5:00 pm)30.21 "Hg (Apr 16, 5:00 pm)
Low55 °F (Apr 22, 6:00 am)23% (Apr 18, 5:00 pm)29.56 "Hg (Apr 19, 5:00 pm)
Average67 °F68%29.93 "Hg
* Reported Apr 15 8:00 pm — Apr 30 8:00 pm, Chongqing, Weather by CustomWeather, © 2017

Note: Actual official high and low records may vary slightly from our data, if they occured in-between our weather recording intervals... More about our weather records

Advertising

Chongqing Weather History for the Previous 24 Hours

Scroll right to see more
 ConditionsComfort  
Time TempWeatherWind HumidityBarometerVisibility
8:00 pm
Sun, Apr 30
73 °FPassing clouds.3 mph53%29.80 "HgN/A
7:00 pm75 °FSunny.3 mph54%29.77 "Hg10 mi
6:00 pm75 °FSunny.1 mph54%29.74 "Hg10 mi
5:00 pm77 °FPassing clouds.3 mph51%29.74 "HgN/A
4:00 pm77 °FPassing clouds.6 mph47%29.74 "HgN/A
3:00 pm77 °FPassing clouds.3 mph47%29.77 "HgN/A
2:00 pm75 °FSunny.1 mph54%29.77 "Hg10 mi
1:00 pm73 °FSunny.1 mph57%29.80 "Hg10 mi
12:00 pm72 °FSunny.1 mph61%29.83 "Hg10 mi
11:00 am72 °FSunny.1 mph65%29.83 "Hg10 mi
10:00 am70 °FSunny.6 mph64%29.83 "Hg10 mi
9:00 am66 °FSunny.6 mph78%29.83 "Hg10 mi
8:00 am64 °FSunny.3 mph83%29.83 "Hg10 mi
7:00 am64 °FSprinkles. Passing clouds.3 mph78%29.80 "HgN/A
6:00 am63 °FClear.3 mph83%29.80 "Hg10 mi
5:00 am63 °FClear.3 mph83%29.80 "Hg5 mi
4:00 am63 °FLight rain. Clear.10 mph83%29.80 "Hg4 mi
3:00 am64 °FLight rain. Clear.6 mph83%29.83 "Hg5 mi
2:00 am68 °FPassing clouds.3 mph60%29.83 "HgN/A
1:00 am68 °FClear.1 mph56%29.86 "Hg10 mi
12:00 am70 °FClear.1 mph57%29.86 "Hg10 mi
11:00 pm
Sat, Apr 29
70 °FClear.3 mph53%29.86 "Hg10 mi
10:00 pm72 °FClear.3 mph53%29.86 "Hg10 mi
9:00 pm73 °FClear.1 mph44%29.86 "Hg10 mi
Weather by CustomWeather, © 2017

See weather overviewHow to use our weather pages